Overview Statistics Trail Chart Weather Telemetry Raw packets
 

This is the latest recevied weather packets stored in our database for station/object DOUGLAS. If no packets are shown the sender has not sent any weather packets the latest 10 day(s).

<< 36 37 38 39 40 41 42 >>
Time Temp. Humidity Pressure Rain* Wind** Luminosity Snow
1788042005 15.56° C 74% 0 hPa - - - -
1788041403 15.56° C 71% 0 hPa - - - -
1788040804 15.56° C 74% 0 hPa - - - -
1788040203 15° C 80% 0 hPa - - - -
1788039603 15° C 76% 0 hPa - - - -
1788039003 15° C 79% 0 hPa - - - -
1788038403 15.56° C 77% 0 hPa - - - -
1788037803 15.56° C 76% 0 hPa - - - -
1788037203 15.56° C 75% 0 hPa - - - -
1788036603 16.67° C 67% 0 hPa - - - -
1788036003 16.67° C 67% 0 hPa - - - -
1788035404 16.67° C 70% 0 hPa - - - -
1788034803 15.56° C 76% 0 hPa - - - -
1788034203 16.11° C 72% 0 hPa - - - -
1788033603 15.56° C 76% 0 hPa - - - -
1788033003 16.11° C 75% 0 hPa - - - -
1788032403 15.56° C 78% 0 hPa - - - -
1788031803 15.56° C 78% 0 hPa - - - -
1788031203 15.56° C 84% 0 hPa - - - -
1788030603 16.11° C 83% 0 hPa - - - -
1788030004 15.56° C 80% 0 hPa - - - -
1788029403 15° C 83% 0 hPa - - - -
1788028808 14.44° C 91% 0 hPa - - - -
1788028204 14.44° C 91% 0 hPa - - - -
1788027603 13.89° C 94% 0 hPa - - - -

* Rain since midnight (hover to see other rain measurements)
** Current wind speed in m/s (hover to see current wind gust speed)